STARLINK-3293, 50176

Orbit data source: Space-Track

STARLINK-3293, 50176 is a payload satellite owned by SpaceX/Seattle (US) in LEO that was launched on Sat, 18 Dec 2021 UTC via an FALCON 9 launch vehicle from the Air Force Western Test Range (AFWTR). Payload-class satellites include a variety of spacecraft equipped with specific instruments for various scientific and technological missions. These include communications satellites like Starlink; space stations such as the ISS; scientific satellites like the Hubble; Earth observation satellites from companies like Planet Labs, Umbra, and HawkEye 360; GPS; miniature CubeSats for education and research; and military/defense satellites.

Loading next visibility...
Identifier
50176, 2021-125W
Orbit
LEO
Country
Flag of USUS
Related business
Manufacturer
SpaceX/Seattle
Mission
Operational Commercial Communications
Bus & Motor
STARLINK, Unknown motor
Mass
290 kg wet, ~270 kg dry
Launch date (UTC)
2021-12-18 (5 years ago)
Launch vehicle
FALCON 9
Launch site
Air Force Western Test Range (AFWTR)
Object type
Payload
Rocket body
Debris
Shape & HBR
Box + 1 Pan, 10.1 m
Radar Cross Section
13.562 m², Large (>1 m²)

Expand to show TLE details & history
Last TLE update: 7 hours ago

TLE from 7 hours ago
0 STARLINK-3293
1 50176U 21125W   26169.96908312  .00000465  00000-0  47321-4 0  9998
2 50176  53.1590 154.3521 0001298  91.7946 268.3194 15.08826883251933
Epoch: 2026-06-18T23:15Z
TLE epoch observation values (Epoch: 2026-06-18T23:15:28.781Z)
Latitude
-0.00003°
Longitude
-101.72264°
Altitude
540.701 km
Speed
7.593 km/s
True Right ascension
10h 17m 24s
True Declination
0° 00' 00"
Sunlit
Object was in daylight at epoch
Visualization orbit readout
Latitude
Unknown
Longitude
Unknown
Altitude
Unknown
Speed
Unknown
Apparent Right ascension
Unknown
Apparent Declination
Unknown
Sunlit
N/A
Visualization observer readout
Local Sidereal Time
17:10:58
Azimuth
Unknown
Elevation
Unknown
Doppler factor
Unknown
Orbital elements
Apogee altitude
540.936 km
Perigee altitude
539.14 km
Semi-major axis
6,918.175 km
Eccentricity
0.00013
Inclination
53.159°
RAAN
154.3521°
Arg. of periapsis
91.7946°
True anomaly
268.30453°
Mean anomaly
268.3194°
Eccentric anomaly
268.31197°
Mean motion
3.77186 °/min
Orbital period
95.44 mins
BSTAR
0.000047321
Loading maneuver chart data...
Computing Atmospheric mass density...
Loading historical data...
Loading historical data...
Loading historical data...
Loading historical data...
Loading historical data...
Loading historical data...
Loading historical data...

Documentation

Showing up to 5 results
|